Home > Weather > Basra > Past weeks

Flag for Iraq Weather for the Past 2 Weeks in Basra, Iraq

Now
46 °F

Clear.


Feels Like: 46 °F
Forecast: 58 / 68 °F
Wind: No wind

Location: Abadan Airport

Current Time: Feb 6, 2016 at 4:46:47 AM

Latest Report: Feb 6, 2016 at 4:00 AM


Visibility: 10 mi

Pressure: 30.12 "Hg

Humidity: 87%

Dew point: 43 °F

Location of BasraLocation

Historic Weather in Basra — Graph

°F

Basra Temperature Yesterday

Maximum temperature yesterday: 68 °F (at 2:00 PM)
Minimum temperature yesterday: 45 °F (at 7:00 AM)
Average temperature yesterday: 58 °F

High & Low Weather Summary for the Past Weeks

 TemperatureHumidityPressure
High73 °F (Jan 22, 3:00 PM)94% (Jan 24, 8:30 PM)30.39 "Hg (Jan 24, 8:30 PM)
Low36 °F (Jan 29, 4:00 AM)21% (Jan 30, 3:00 PM)29.89 "Hg (Jan 24, 3:00 PM)
Average55 °F58%30.18 "Hg
* Reported Jan 22 3:00 AM — Feb 6 3:00 AM, Basra, Weather by CustomWeather, © 2016

Note: Actual official high and low records may vary slightly from our data, if they occured in-between our weather recording intervals... More about our weather records

Advertising

Basra Weather History for the Previous 24 Hours

 ConditionsComfort  
Time TempWeatherWind HumidityBarometerVisibility
3:00 AM
Sat, Feb 6
48 °FClear.No wind82%30.15 "Hg10 mi
2:00 AM48 °FClear.No wind82%30.15 "Hg10 mi
1:00 AM50 °FClear.No wind76%30.18 "Hg10 mi
12:00 AM50 °FClear.No wind71%30.18 "Hg10 mi
11:00 PM
Fri, Feb 5
52 °FClear.No wind77%30.18 "Hg10 mi
10:00 PM54 °FClear.No wind67%30.18 "Hg10 mi
9:30 PM54 °FClear.No wind67%30.21 "Hg10 mi
9:00 PM55 °FClear.No wind63%30.21 "Hg10 mi
8:30 PM55 °FClear.No wind67%30.21 "Hg10 mi
8:00 PM57 °FClear.No wind63%30.21 "Hg10 mi
7:30 PM59 °FClear.No wind59%30.21 "Hg10 mi
7:00 PM61 °FClear.No wind55%30.21 "Hg10 mi
6:30 PM64 °FClear.No wind40%30.21 "Hg10 mi
6:00 PM66 °FClear.No wind37%30.21 "Hg10 mi
5:30 PM66 °FSunny.No wind35%30.21 "Hg10 mi
5:00 PM68 °FSunny.5 mph33%30.24 "Hg10 mi
4:00 PM68 °FSunny.7 mph33%30.24 "Hg10 mi
3:00 PM68 °FSunny.5 mph33%30.24 "Hg10 mi
2:00 PM68 °FSunny.7 mph38%30.27 "Hg10 mi
1:00 PM66 °FSunny.12 mph40%30.30 "Hg10 mi
12:00 PM66 °FSunny.7 mph40%30.33 "Hg10 mi
11:00 AM63 °FSunny.9 mph49%30.36 "Hg10 mi
10:00 AM59 °FSunny.5 mph59%30.36 "Hg10 mi
9:00 AM52 °FClear.5 mph72%30.36 "Hg4 mi
8:00 AM46 °FClear.5 mph82%30.33 "Hg4 mi
7:00 AM45 °FClear.No wind81%30.33 "Hg4 mi
6:00 AM46 °FClear.No wind82%30.30 "Hg10 mi
5:00 AM48 °FClear.No wind76%30.30 "Hg10 mi
4:00 AM48 °FClear.5 mph76%30.30 "Hg10 mi
Weather by CustomWeather, © 2016

See weather overviewHow to use our weather pages